Location: Unspecified
(48.7170°N, 0.0000°E)
Time: 14:44:07
(UTC+00:00)

ISS - Pass Details

Date: 30 May 2019
Orbit: 408 x 418 km, 51.6° (Epoch: 25 June)

Event Time Altitude Azimuth Distance (km) Brightness Sun altitude
Rises 22:02:43 0° 289° (WNW) 2,360 0.8 -14.9°
Reaches altitude 10° 22:04:55 10° 280° (W) 1,496 -0.4 -15.1°
Maximum altitude 22:07:59 34° 214° (SW) 708 -2.9 -15.3°
Enters shadow 22:08:38 31° 188° (S) 760 -2.9 -15.4°
